SCP
0 0 0 -0 -0 0 0 0 0 0 0 0 0 0 0 0 0 0 0 0 0 0 0 0 0 0 0 0 0 0 0 0 0 0 0 0 0 0 0 0 0 0 -0 -0
0 0 0 -0 0 0 0 0 0 0 0 0 0 0 0 0 0 0 0 0 0 0 0 0 0 0 0 0 0 0 0 0 0 0 0 0 -0 0 0 0 -0 -0 0 -0
0 0 0 0 0 0 0 0 0 0 0 0 0 -0 0 0 0 0 0 0 0 0 0 0 0 0 0 0 0 0 0 0 0 0 0 0 0 0 0 0 0 0 0 0
0 0 0 0 0 0 0 0 0 0 0 0 0 0 0 0 0 0 0 0 0 0 0 0 0 0 0 0 0 0 0 0 0 0 0 0 0 0 0 0 0 0 0 -0
0 0 0 0 0 -0 0 0 0 0 0 0 -0 0 0 0 0 0 0 0 0 0 0 0 0 0 0 0 0 0 0 0 0 0 0 0 0 0 0 0 0 0 -0 -0
0 0 0 0 0 -0 0 0 0 0 0 0 0 0 0 0 0 0 0 0 0 0 0 0 0 0 0 0 0 0 0 0 0 0 0 0 0 0 0 0 -0 -0 -0 0
0 0 0 0 0 -0 0 0 0 0 0 -0 0 -0 0 0 0 0 -0 0 0 0 0 0 0 0 0 0 0 0 0 0 0 0 0 0 0 0 0 0 0 0 -0 -0
0 0 0 0 0 0 0 0 0 0 0 -0 0 0 0 -0 0 0 0 0 0 0 0 0 0 0 0 0 0 0 0 0 0 0 0 0 0 0 0 0 -0 0 -0 -0
0 0 0 0 0 0 0 0 0 0 0 0 0 0 0 -0 0 0 0 0 0 0 0 0 0 0 0 0 0 0 0 0 0 0 0 0 0 0 0 0 0 0 -0 -0
0 0 0 0 0 0 0 -0 -0 0 0 0 0 0 0 0 0 0 -0 0 0 0 0 0 0 0 0 0 0 0 0 0 0 0 0 0 0 0 0 0 0 0 -0 -0
0 0 -0 0 0 0 0 0 0 0 0 0 -0 0 0 0 0 0 0 0 0 0 0 0 0 0 0 0 0 0 0 0 0 0 0 0 0 0 0 0 1 0 0 0
-0 0 0 0 0 0 0 0 0 0 0 -0 0 -0 -0 0 0 0 0 0 0 0 0 0 0 0 0 0 0 0 0 0 0 0 0 0 0 0 0 0 0 0 0 -0
-0 -0 0 0 0 0 -0 -0 -0 -0 0 -0 0 0 0 -0 -0 -0 0 0 0 0 0 1 0 0 0 0 0 0 0 0 0 0 0 0 0 0 0 0 0 0 0 0
0 0 0 0 0 0 0 -0 -0 -0 -0 -0 -0 -0 -0 -0 -0 -0 -0 0 0 0 0 0 0 0 0 0 0 0 0 0 0 0 0 0 0 0 0 0 0 0 0 0
-0 0 0 -0 0 0 0 0 0 0 -0 0 0 0 0 0 -0 -0 0 -0 0 0 0 0 0 0 0 0 0 0 0 0 0 0 0 0 0 0 0 0 0 0 0 0
-0 0 0 0 0 -0 0 0 0 0 -0 -0 0 0 0 0 0 0 0 0 0 0 0 0 0 0 0 0 0 0 0 0 0 0 0 0 0 0 0 0 0 0 0 0
-0 -0 0 0 0 0 0 0 0 -0 0 -0 0 0 0 0 0 0 0 0 0 0 0 0 0 0 0 0 0 0 0 0 0 0 0 0 0 0 0 0 0 0 0 0
0 0 0 0 0 0 -0 -0 -0 -0 0 0 0 0 0 0 -0 -0 0 -0 0 -0 -0 0 0 0 0 0 0 0 0 0 0 0 0 0 0 0 0 0 0 0 0 0
0 0 0 0 0 0 0 -0 -0 -0 0 0 0 0 0 -0 -0 -0 -0 -0 -0 -0 -0 -0 0 0 0 0 0 0 0 0 0 0 0 0 0 0 0 0 0 0 0 0
0 0 0 0 0 0 -0 -0 0 0 0 0 0 0 0 0 0 0 -0 0 -0 0 -0 -0 -0 0 0 0 0 0 0 0 0 -0 0 0 0 0 0 0 0 0 0 0
0 0 0 0 0 0 0 0 0 0 0 0 0 0 -0 -0 0 0 0 -0 -0 -0 -0 0 -0 0 0 0 0 0 0 0 0 -0 0 0 0 1 0 0 0 0 0 0
0 0 0 0 0 0 0 0 0 0 0 0 0 -0 0 -0 0 0 0 0 0 0 0 -0 -0 -0 0 0 0 -0 0 0 0 -0 0 0 0 0 0 0 0 0 0 0
0 0 0 0 0 0 0 0 0 0 0 0 -0 -0 0 -0 -0 0 -0 -0 0 -0 0 0 0 -0 -0 -0 0 0 0 0 0 0 -0 -0 -0 0 0 0 0 1 1 1
0 0 0 0 0 0 0 0 0 0 0 -0 -0 -0 0 0 0 0 0 0 0 0 0 0 -0 0 0 0 0 0 0 0 0 0 -0 -0 -0 0 0 0 1 1 2 2
0 0 0 0 0 0 0 -0 0 0 0 -0 -0 0 0 0 0 0 0 0 0 0 0 -0 -0 -0 0 0 0 0 0 0 0 0 0 0 0 0 0 0 1 1 1 1
0 0 0 0 0 0 0 -0 -0 0 -0 -0 0 0 0 0 0 0 0 0 0 0 0 0 0 0 0 0 0 0 0 0 0 0 0 0 0 0 0 0 0 0 0 0
0 0 0 0 0 0 0 -0 -0 0 0 0 0 0 0 0 0 0 0 0 0 0 0 0 0 0 -0 0 -0 0 0 0 0 0 0 0 0 0 0 0 0 0 0 0
Wind_Speed_500mb
62 57 41 31 23 22 34 23 9 16 48 22 6 18 63 77 37 45 41 20 39 44 43 50 49 47 45 52 54 68 60 25 28 44 41 44 44 44 41 23 31 20 20 19
55 49 42 30 13 28 35 10 16 13 50 19 24 23 51 52 44 32 26 31 25 42 42 35 49 38 29 40 54 51 48 29 30 30 20 28 45 43 42 40 30 32 23 19
48 47 38 22 5 26 21 8 5 14 34 30 36 49 38 36 44 42 45 37 38 36 39 36 30 38 37 41 53 46 49 34 52 44 42 38 42 42 47 44 32 32 33 32
45 42 34 16 13 21 21 12 9 7 7 14 24 18 19 24 38 46 46 23 38 26 32 45 34 36 34 33 53 43 39 48 47 49 42 48 42 45 48 49 46 39 33 34
43 45 38 15 15 28 25 10 6 7 6 7 29 28 35 43 34 35 50 43 46 12 24 24 41 32 33 43 37 49 41 29 39 41 49 40 43 49 47 50 50 45 38 34
40 43 37 20 22 37 16 20 25 7 6 7 3 6 24 37 35 44 50 51 27 31 10 21 23 20 1 8 38 41 41 31 29 42 39 41 45 51 51 47 50 45 44 38
37 36 32 36 29 38 18 14 10 5 8 13 15 19 22 23 42 40 46 53 40 18 23 30 15 16 11 15 13 23 37 41 27 26 31 38 38 43 49 47 40 43 41 36
39 32 21 29 10 31 27 17 12 9 9 14 23 19 24 24 27 35 44 32 14 21 27 16 13 14 19 22 24 19 26 34 23 24 32 16 25 25 43 45 48 39 41 41
35 31 22 18 11 4 12 20 22 7 7 2 6 19 37 22 21 21 47 49 9 15 7 15 25 25 33 22 26 17 13 24 27 25 38 53 24 29 32 33 34 39 44 38
31 28 27 20 13 10 12 15 15 10 9 15 10 8 11 11 19 13 29 41 22 17 14 4 8 21 36 37 40 31 22 23 34 26 30 23 9 35 31 35 16 30 44 48
34 28 27 22 11 2 7 7 11 14 11 25 15 13 8 13 9 8 14 12 17 18 24 13 5 11 16 19 38 40 26 24 23 29 27 25 20 22 36 19 15 15 27 33
38 36 30 26 5 1 7 15 5 10 19 25 29 32 26 22 12 16 5 9 8 22 14 18 13 13 12 18 23 4 26 28 24 24 21 14 29 19 36 21 27 22 18 25
44 32 33 14 9 8 9 11 10 11 10 24 15 8 7 15 16 12 10 1 9 7 8 10 14 15 23 15 28 20 20 12 11 13 22 8 19 20 18 30 23 16 19 18
41 36 25 11 10 11 15 10 10 13 11 7 5 5 6 9 7 8 15 18 6 6 11 11 13 12 34 28 28 26 26 26 27 23 28 23 31 42 25 24 23 17 18 22
34 27 18 9 11 19 13 8 10 17 10 10 21 29 11 15 17 16 17 21 22 20 11 9 17 15 13 24 26 29 27 28 27 23 18 32 36 32 48 30 29 27 23 23
31 26 24 15 16 21 13 5 5 22 19 9 8 14 9 8 11 16 17 19 22 25 15 13 12 22 10 12 26 34 52 29 24 26 5 15 27 29 29 35 37 27 29 28
35 29 23 16 14 16 11 7 14 26 20 7 8 7 5 8 8 7 11 17 21 24 24 23 25 21 14 13 22 36 48 40 23 12 13 31 39 29 29 31 40 35 35 30
40 28 21 19 17 16 10 10 26 25 11 6 4 8 12 1 5 7 13 15 22 16 21 18 16 22 19 14 40 44 38 32 33 37 34 31 44 44 38 36 30 38 35 34
37 26 16 10 6 9 11 32 20 9 7 7 4 6 5 10 8 7 6 12 9 11 11 18 12 15 18 25 29 29 34 40 45 44 42 41 45 52 47 43 42 47 42 37
28 11 4 5 7 29 15 8 3 4 6 8 7 8 6 7 6 8 6 8 8 6 14 15 14 26 38 38 32 37 31 31 32 37 43 44 52 51 49 49 46 50 52 48
17 14 4 14 15 7 4 5 5 3 6 7 9 10 9 13 8 4 12 4 8 7 10 12 10 18 32 44 51 44 40 34 33 39 43 42 40 35 46 53 50 44 41 49
20 16 12 15 9 5 7 7 5 6 7 12 9 26 19 12 11 6 8 6 5 9 4 9 8 7 9 21 26 31 34 32 30 30 34 36 37 38 40 41 45 45 51 50
13 10 8 11 9 9 9 12 7 12 17 20 41 21 9 9 13 7 4 8 9 2 5 6 3 2 7 3 11 21 22 23 17 16 24 24 24 24 26 33 34 41 47 43
10 11 11 11 8 6 5 11 12 23 31 43 41 20 7 10 5 4 7 5 4 7 9 4 1 15 10 8 7 21 26 27 22 23 28 33 39 38 33 28 28 29 35 44
10 10 12 6 14 28 27 26 23 35 33 32 24 16 11 6 8 6 7 9 8 11 9 3 13 25 24 9 28 30 30 30 34 24 34 47 55 54 49 42 42 32 13 33
9 9 12 30 23 29 36 38 33 38 43 30 7 8 10 8 11 8 11 18 12 10 9 40 39 47 46 45 46 44 38 31 20 31 47 55 57 57 50 57 47 16 9 23
9 10 20 23 21 27 34 36 39 35 28 16 9 14 11 9 11 13 11 13 13 28 43 45 37 32 27 28 43 48 43 37 36 43 52 51 43 49 35 42 19 18 19 23
Wind_Direction_500mb
341 340 333 312 294 207 187 191 215 206 187 191 217 227 226 237 282 314 266 300 266 229 222 201 198 216 203 193 189 198 203 199 179 210 198 218 202 213 206 221 212 245 276 263
343 344 343 330 233 203 173 204 217 223 194 203 219 246 244 250 248 276 311 274 253 248 231 223 216 209 198 187 190 196 191 211 206 196 189 214 224 211 218 217 245 241 227 232
343 343 344 346 215 205 174 180 216 208 210 248 241 231 245 253 254 257 272 269 292 269 236 223 208 209 191 191 189 187 191 201 207 207 203 195 208 223 215 215 222 231 236 252
344 345 334 314 259 192 183 217 226 244 193 237 254 253 241 254 240 239 262 288 245 279 233 218 223 204 179 199 190 188 187 209 208 224 215 201 208 214 213 218 219 231 232 234
351 354 345 285 229 200 203 195 228 216 219 266 213 229 244 253 245 245 245 248 273 273 259 263 214 200 191 187 182 193 191 212 218 212 220 210 214 218 212 217 221 228 238 251
340 350 348 310 221 203 197 221 249 261 166 180 218 291 243 253 250 237 249 241 264 259 318 316 321 320 339 161 185 189 191 206 207 219 216 222 226 216 214 219 224 226 230 234
340 338 343 352 226 205 217 227 211 247 271 246 274 276 250 271 250 240 232 234 236 269 294 293 252 243 204 180 167 195 190 197 200 204 199 209 242 216 220 222 225 225 238 236
353 349 349 3 22 201 215 235 237 248 265 238 271 280 296 250 230 259 267 253 270 222 277 256 207 207 201 189 178 178 212 190 197 207 205 219 192 206 211 216 232 220 223 224
357 354 355 351 344 237 234 231 259 259 301 269 333 285 285 251 240 224 232 257 179 191 301 318 225 196 196 178 166 167 165 214 198 209 195 219 186 170 200 212 227 211 218 221
8 2 6 355 345 302 226 240 244 236 256 273 281 266 293 257 211 220 198 212 211 212 162 213 273 223 209 202 175 174 170 185 198 189 215 226 264 179 171 193 197 193 211 219
355 353 5 360 359 335 205 276 229 253 273 289 269 266 293 301 268 226 197 179 218 206 221 167 200 279 217 241 206 185 182 181 197 203 205 214 164 154 194 190 107 178 206 217
13 2 359 358 28 19 41 334 287 259 254 274 288 282 277 282 348 345 277 274 260 201 218 217 177 225 288 231 209 206 214 203 200 204 203 93 169 195 201 191 212 215 208 196
3 356 359 9 52 96 343 321 333 4 280 299 252 286 264 265 270 270 293 116 359 223 278 313 238 214 220 247 241 196 224 282 251 252 219 203 223 237 216 211 223 207 197 194
358 5 22 39 22 342 350 338 354 346 309 278 115 358 296 258 261 260 252 266 308 301 255 241 250 240 233 225 239 246 233 222 234 252 259 266 229 249 243 232 221 203 194 191
351 352 356 350 344 347 323 340 1 9 356 319 305 302 291 242 251 270 262 238 241 262 267 242 224 252 266 232 240 230 240 240 234 233 248 248 236 233 243 232 227 218 204 188
344 344 344 308 305 342 325 267 318 358 343 308 313 337 283 251 266 258 240 228 232 237 250 254 248 240 251 252 220 221 229 242 245 265 54 297 267 283 280 268 230 217 209 199
340 327 321 315 303 316 315 318 319 327 326 265 283 295 233 256 238 229 215 214 222 230 244 250 254 243 233 243 237 214 215 210 214 223 298 271 259 254 254 247 245 241 223 212
331 319 310 304 302 306 307 282 317 321 304 303 289 274 300 340 229 241 207 209 207 224 242 245 247 240 218 240 234 240 234 230 237 246 248 263 278 278 271 255 251 218 212 214
333 321 314 296 300 296 311 301 312 292 262 293 250 281 307 310 265 212 226 209 219 247 239 232 222 226 220 229 240 217 225 235 247 248 250 245 259 269 257 248 239 221 224 223
341 355 320 279 290 309 326 323 294 234 229 233 262 290 263 260 279 208 194 229 204 227 224 222 227 240 238 234 220 237 237 236 249 252 246 247 251 254 251 242 231 226 232 232
3 349 315 308 330 341 300 306 296 296 252 222 266 268 277 267 241 232 219 222 211 231 201 208 224 233 222 223 227 235 234 250 258 250 243 248 252 255 245 241 236 233 232 213
336 335 327 339 341 312 305 319 294 265 303 319 296 304 298 272 234 210 219 234 225 247 200 219 227 235 177 198 224 232 228 240 249 230 234 239 241 244 239 234 225 218 203 188
353 354 339 347 354 349 339 349 327 320 326 319 322 329 277 278 239 245 237 234 221 58 214 237 330 322 48 174 212 218 214 212 199 207 212 210 204 200 207 194 188 182 178 160
7 351 24 9 351 344 291 290 285 288 290 309 320 307 256 261 249 253 260 250 221 213 201 215 72 75 62 64 271 226 180 173 125 107 128 135 121 119 126 145 158 172 152 141
28 20 10 334 289 290 286 289 278 306 322 320 309 276 255 291 294 353 299 315 339 8 2 4 93 102 73 7 6 83 123 106 99 91 110 100 97 97 94 101 107 101 151 135
21 33 352 351 348 355 360 349 346 349 339 338 302 346 346 353 328 338 9 326 12 333 2 49 47 78 60 50 49 82 79 119 85 85 95 93 95 95 96 102 100 103 154 132
8 1 359 357 358 360 358 357 352 344 354 3 12 2 5 306 327 3 353 348 321 353 28 33 40 54 70 76 81 85 89 82 83 79 85 88 90 95 100 110 163 166 138 107
Wind_Speed_850mb
62 57 41 31 23 22 34 23 9 16 48 22 6 18 63 77 37 45 41 20 39 44 43 50 49 47 45 52 54 68 60 25 28 44 41 44 44 44 41 23 31 20 20 19
55 49 42 30 13 28 35 10 16 13 50 19 24 23 51 52 44 32 26 31 25 42 42 35 49 38 29 40 54 51 48 29 30 30 20 28 45 43 42 40 30 32 23 19
48 47 38 22 5 26 21 8 5 14 34 30 36 49 38 36 44 42 45 37 38 36 39 36 30 38 37 41 53 46 49 34 52 44 42 38 42 42 47 44 32 32 33 32
45 42 34 16 13 21 21 12 9 7 7 14 24 18 19 24 38 46 46 23 38 26 32 45 34 36 34 33 53 43 39 48 47 49 42 48 42 45 48 49 46 39 33 34
43 45 38 15 15 28 25 10 6 7 6 7 29 28 35 43 34 35 50 43 46 12 24 24 41 32 33 43 37 49 41 29 39 41 49 40 43 49 47 50 50 45 38 34
40 43 37 20 22 37 16 20 25 7 6 7 3 6 24 37 35 44 50 51 27 31 10 21 23 20 1 8 38 41 41 31 29 42 39 41 45 51 51 47 50 45 44 38
37 36 32 36 29 38 18 14 10 5 8 13 15 19 22 23 42 40 46 53 40 18 23 30 15 16 11 15 13 23 37 41 27 26 31 38 38 43 49 47 40 43 41 36
39 32 21 29 10 31 27 17 12 9 9 14 23 19 24 24 27 35 44 32 14 21 27 16 13 14 19 22 24 19 26 34 23 24 32 16 25 25 43 45 48 39 41 41
35 31 22 18 11 4 12 20 22 7 7 2 6 19 37 22 21 21 47 49 9 15 7 15 25 25 33 22 26 17 13 24 27 25 38 53 24 29 32 33 34 39 44 38
31 28 27 20 13 10 12 15 15 10 9 15 10 8 11 11 19 13 29 41 22 17 14 4 8 21 36 37 40 31 22 23 34 26 30 23 9 35 31 35 16 30 44 48
34 28 27 22 11 2 7 7 11 14 11 25 15 13 8 13 9 8 14 12 17 18 24 13 5 11 16 19 38 40 26 24 23 29 27 25 20 22 36 19 15 15 27 33
38 36 30 26 5 1 7 15 5 10 19 25 29 32 26 22 12 16 5 9 8 22 14 18 13 13 12 18 23 4 26 28 24 24 21 14 29 19 36 21 27 22 18 25
44 32 33 14 9 8 9 11 10 11 10 24 15 8 7 15 16 12 10 1 9 7 8 10 14 15 23 15 28 20 20 12 11 13 22 8 19 20 18 30 23 16 19 18
41 36 25 11 10 11 15 10 10 13 11 7 5 5 6 9 7 8 15 18 6 6 11 11 13 12 34 28 28 26 26 26 27 23 28 23 31 42 25 24 23 17 18 22
34 27 18 9 11 19 13 8 10 17 10 10 21 29 11 15 17 16 17 21 22 20 11 9 17 15 13 24 26 29 27 28 27 23 18 32 36 32 48 30 29 27 23 23
31 26 24 15 16 21 13 5 5 22 19 9 8 14 9 8 11 16 17 19 22 25 15 13 12 22 10 12 26 34 52 29 24 26 5 15 27 29 29 35 37 27 29 28
35 29 23 16 14 16 11 7 14 26 20 7 8 7 5 8 8 7 11 17 21 24 24 23 25 21 14 13 22 36 48 40 23 12 13 31 39 29 29 31 40 35 35 30
40 28 21 19 17 16 10 10 26 25 11 6 4 8 12 1 5 7 13 15 22 16 21 18 16 22 19 14 40 44 38 32 33 37 34 31 44 44 38 36 30 38 35 34
37 26 16 10 6 9 11 32 20 9 7 7 4 6 5 10 8 7 6 12 9 11 11 18 12 15 18 25 29 29 34 40 45 44 42 41 45 52 47 43 42 47 42 37
28 11 4 5 7 29 15 8 3 4 6 8 7 8 6 7 6 8 6 8 8 6 14 15 14 26 38 38 32 37 31 31 32 37 43 44 52 51 49 49 46 50 52 48
17 14 4 14 15 7 4 5 5 3 6 7 9 10 9 13 8 4 12 4 8 7 10 12 10 18 32 44 51 44 40 34 33 39 43 42 40 35 46 53 50 44 41 49
20 16 12 15 9 5 7 7 5 6 7 12 9 26 19 12 11 6 8 6 5 9 4 9 8 7 9 21 26 31 34 32 30 30 34 36 37 38 40 41 45 45 51 50
13 10 8 11 9 9 9 12 7 12 17 20 41 21 9 9 13 7 4 8 9 2 5 6 3 2 7 3 11 21 22 23 17 16 24 24 24 24 26 33 34 41 47 43
10 11 11 11 8 6 5 11 12 23 31 43 41 20 7 10 5 4 7 5 4 7 9 4 1 15 10 8 7 21 26 27 22 23 28 33 39 38 33 28 28 29 35 44
10 10 12 6 14 28 27 26 23 35 33 32 24 16 11 6 8 6 7 9 8 11 9 3 13 25 24 9 28 30 30 30 34 24 34 47 55 54 49 42 42 32 13 33
9 9 12 30 23 29 36 38 33 38 43 30 7 8 10 8 11 8 11 18 12 10 9 40 39 47 46 45 46 44 38 31 20 31 47 55 57 57 50 57 47 16 9 23
9 10 20 23 21 27 34 36 39 35 28 16 9 14 11 9 11 13 11 13 13 28 43 45 37 32 27 28 43 48 43 37 36 43 52 51 43 49 35 42 19 18 19 23
Wind_Direction_850mb
341 340 333 312 294 207 187 191 215 206 187 191 217 227 226 237 282 314 266 300 266 229 222 201 198 216 203 193 189 198 203 199 179 210 198 218 202 213 206 221 212 245 276 263
343 344 343 330 233 203 173 204 217 223 194 203 219 246 244 250 248 276 311 274 253 248 231 223 216 209 198 187 190 196 191 211 206 196 189 214 224 211 218 217 245 241 227 232
343 343 344 346 215 205 174 180 216 208 210 248 241 231 245 253 254 257 272 269 292 269 236 223 208 209 191 191 189 187 191 201 207 207 203 195 208 223 215 215 222 231 236 252
344 345 334 314 259 192 183 217 226 244 193 237 254 253 241 254 240 239 262 288 245 279 233 218 223 204 179 199 190 188 187 209 208 224 215 201 208 214 213 218 219 231 232 234
351 354 345 285 229 200 203 195 228 216 219 266 213 229 244 253 245 245 245 248 273 273 259 263 214 200 191 187 182 193 191 212 218 212 220 210 214 218 212 217 221 228 238 251
340 350 348 310 221 203 197 221 249 261 166 180 218 291 243 253 250 237 249 241 264 259 318 316 321 320 339 161 185 189 191 206 207 219 216 222 226 216 214 219 224 226 230 234
340 338 343 352 226 205 217 227 211 247 271 246 274 276 250 271 250 240 232 234 236 269 294 293 252 243 204 180 167 195 190 197 200 204 199 209 242 216 220 222 225 225 238 236
353 349 349 3 22 201 215 235 237 248 265 238 271 280 296 250 230 259 267 253 270 222 277 256 207 207 201 189 178 178 212 190 197 207 205 219 192 206 211 216 232 220 223 224
357 354 355 351 344 237 234 231 259 259 301 269 333 285 285 251 240 224 232 257 179 191 301 318 225 196 196 178 166 167 165 214 198 209 195 219 186 170 200 212 227 211 218 221
8 2 6 355 345 302 226 240 244 236 256 273 281 266 293 257 211 220 198 212 211 212 162 213 273 223 209 202 175 174 170 185 198 189 215 226 264 179 171 193 197 193 211 219
355 353 5 360 359 335 205 276 229 253 273 289 269 266 293 301 268 226 197 179 218 206 221 167 200 279 217 241 206 185 182 181 197 203 205 214 164 154 194 190 107 178 206 217
13 2 359 358 28 19 41 334 287 259 254 274 288 282 277 282 348 345 277 274 260 201 218 217 177 225 288 231 209 206 214 203 200 204 203 93 169 195 201 191 212 215 208 196
3 356 359 9 52 96 343 321 333 4 280 299 252 286 264 265 270 270 293 116 359 223 278 313 238 214 220 247 241 196 224 282 251 252 219 203 223 237 216 211 223 207 197 194
358 5 22 39 22 342 350 338 354 346 309 278 115 358 296 258 261 260 252 266 308 301 255 241 250 240 233 225 239 246 233 222 234 252 259 266 229 249 243 232 221 203 194 191
351 352 356 350 344 347 323 340 1 9 356 319 305 302 291 242 251 270 262 238 241 262 267 242 224 252 266 232 240 230 240 240 234 233 248 248 236 233 243 232 227 218 204 188
344 344 344 308 305 342 325 267 318 358 343 308 313 337 283 251 266 258 240 228 232 237 250 254 248 240 251 252 220 221 229 242 245 265 54 297 267 283 280 268 230 217 209 199
340 327 321 315 303 316 315 318 319 327 326 265 283 295 233 256 238 229 215 214 222 230 244 250 254 243 233 243 237 214 215 210 214 223 298 271 259 254 254 247 245 241 223 212
331 319 310 304 302 306 307 282 317 321 304 303 289 274 300 340 229 241 207 209 207 224 242 245 247 240 218 240 234 240 234 230 237 246 248 263 278 278 271 255 251 218 212 214
333 321 314 296 300 296 311 301 312 292 262 293 250 281 307 310 265 212 226 209 219 247 239 232 222 226 220 229 240 217 225 235 247 248 250 245 259 269 257 248 239 221 224 223
341 355 320 279 290 309 326 323 294 234 229 233 262 290 263 260 279 208 194 229 204 227 224 222 227 240 238 234 220 237 237 236 249 252 246 247 251 254 251 242 231 226 232 232
3 349 315 308 330 341 300 306 296 296 252 222 266 268 277 267 241 232 219 222 211 231 201 208 224 233 222 223 227 235 234 250 258 250 243 248 252 255 245 241 236 233 232 213
336 335 327 339 341 312 305 319 294 265 303 319 296 304 298 272 234 210 219 234 225 247 200 219 227 235 177 198 224 232 228 240 249 230 234 239 241 244 239 234 225 218 203 188
353 354 339 347 354 349 339 349 327 320 326 319 322 329 277 278 239 245 237 234 221 58 214 237 330 322 48 174 212 218 214 212 199 207 212 210 204 200 207 194 188 182 178 160
7 351 24 9 351 344 291 290 285 288 290 309 320 307 256 261 249 253 260 250 221 213 201 215 72 75 62 64 271 226 180 173 125 107 128 135 121 119 126 145 158 172 152 141
28 20 10 334 289 290 286 289 278 306 322 320 309 276 255 291 294 353 299 315 339 8 2 4 93 102 73 7 6 83 123 106 99 91 110 100 97 97 94 101 107 101 151 135
21 33 352 351 348 355 360 349 346 349 339 338 302 346 346 353 328 338 9 326 12 333 2 49 47 78 60 50 49 82 79 119 85 85 95 93 95 95 96 102 100 103 154 132
8 1 359 357 358 360 358 357 352 344 354 3 12 2 5 306 327 3 353 348 321 353 28 33 40 54 70 76 81 85 89 82 83 79 85 88 90 95 100 110 163 166 138 107